{"data":{"norad_id":45457,"epoch":"2026-09-19T12:12:45.664704Z","epoch_age_seconds":103885,"freshness":"FRESH","line1":"1 45457U 20020AK  26262.50886186  .00000407  00000+0  11119-2 0  9994","line2":"2 45457  87.8984   2.2981 0002060 112.1692 247.9655 13.11415178314900","mean_motion":13.11415178,"eccentricity":0.000206,"inclination_deg":87.8984,"raan_deg":2.2981,"arg_perigee_deg":112.1692,"mean_anomaly_deg":247.9655,"bstar":0.0011119,"rev_number":31490,"period_min":109.8050429915,"perigee_km":1216.1247811773,"apogee_km":1219.2542617041,"semimajor_km":7595.8265214407,"source":"CELESTRAK","updated_at":"2026-09-20T09:00:44.559447Z"}}